STARLINK-1446 (45663 NORAD) Tracking and Keplerian Element Data

This shows tracking and keplerian element data for the satellite.

Feedback or suggestion? Click here.




ElementValue
Catalog45663
NameSTARLINK-1446
Epoch Orbit567
Epoch Day186.50001157
Epoch Year2020
RAAN20.5513
Inclination52.9993
Eccentricity0.0001168
Argument of Perigee74.2499
Mean Anonmoly320.3514
Mean Motion15.43938156
Decay Rate-0.01089858
L11 45663U 20035G 20186.50001157 -.01089858 00000-0 -25692-1 0 9996
L22 45663 52.9993 20.5513 0001168 74.2499 320.3514 15.43938156 5671

Live tracking and technical data element details for STARLINK-1446 (NORAD 45663). STARLINK-1446 can be tracked NOW for your location showing map with azimuth and elevation plus other details from your city location.

Track the satellite on the map from your city or location and see movement details for azimuth, elevation, latitude, longitude, range, height, and movement on the map or in text.







IsCatalogInMostPopularTable: catalog: 45663, numindb: 4
Update: records affected: 1



GetName: 45663 STARLINK-1446

Hit Count: updated at: Sun, 05 Jul 2020 17:23:41 GMT